M I D A S
Marine Information and Data Acquisition System
Tripno 1859 of the Zeeleeuw from 2010-04-12 07:55:30 to 2010-04-12 13:48:43
Back to CruiseResearch ActivitiesStationsMapUnderway DataData graphs

EquipmentUnitsComment
TimeDGPSUTC
LatitudeDGPSDM.mWGS84
LongitudeDGPSDM.mWGS84
TemperatureSBE03/SBE38deg celciusITS90
ConductivitySBE21S/mITS90
SalinitySBE21 Practical Salinity Units
ChlorophylAChelsea fluorimeterg/lCalibrated in Aceton
Missing or incorrect values are displayed as -999
Sea surface data collected by the RV Zeeleeuw from 2010-04-12 07:55:59 to 2010-04-12 13:50:35
Time Latitude Longitude Temperature Conductivity Salinity ChlorophylA
2010-04-12 07:57:05 51°13.675 2°55.894 16.2494 0.035828 0.20349 -1.000568
2010-04-12 07:58:05 51°13.687 2°55.798 16.2635 0.035828 0.203494 -1.035392
2010-04-12 07:59:05 51°13.691 2°55.772 16.2615 0.035828 0.203518 -1.000568
2010-04-12 08:00:05 51°13.684 2°55.76 16.2912 0.035828 0.203518 -1.035392
2010-04-12 08:01:05 51°13.701 2°55.775 16.1111 0.035828 0.203525 -1.035392
2010-04-12 08:02:05 51°13.713 2°55.75 16.1659 0.035828 0.203548 -1.000568
2010-04-12 08:03:05 51°13.788 2°55.664 16.0669 0.035828 0.203562 -1.000568
2010-04-12 08:04:05 51°13.899 2°55.574 16.0687 0.035828 0.203572 -1.035392
2010-04-12 08:05:05 51°14.037 2°55.475 15.9983 0.035828 0.203596 -1.000568
2010-04-12 08:06:05 51°14.194 2°55.365 16.0377 0.035828 0.20363 -1.000568
2010-04-12 08:07:05 51°14.36 2°55.197 15.821 0.035828 0.203671 -1.000568
2010-04-12 08:08:04 51°14.532 2°54.993 15.7981 0.035828 0.203729 -1.000568
2010-04-12 08:09:03 51°14.697 2°54.768 15.7201 0.035828 0.203753 -1.035392
2010-04-12 08:10:02 51°14.872 2°54.574 15.7562 0.035828 0.203907 -1.035392
2010-04-12 08:11:02 51°15.039 2°54.351 15.7068 0.035724 0.203284 -1.000568
2010-04-12 08:12:01 51°15.207 2°54.145 15.7015 0.035724 0.203345 -1.035392
2010-04-12 08:13:02 51°15.378 2°53.926 15.736 0.035724 0.20342 -1.000568
2010-04-12 08:14:02 51°15.546 2°53.709 15.7094 0.035724 0.203465 -1.035392
2010-04-12 08:15:02 51°15.723 2°53.521 15.7941 0.035724 0.203523 -1.035392
2010-04-12 08:16:02 51°15.906 2°53.355 15.8704 0.035724 0.203622 -1.035392
2010-04-12 08:17:02 51°16.092 2°53.198 15.9439 0.035724 0.20367 -1.000568
2010-04-12 08:18:02 51°16.282 2°53.056 15.9879 0.035724 0.203759 -1.000568
2010-04-12 08:19:02 51°16.482 2°52.968 15.9893 0.035724 0.20381 -1.000568
2010-04-12 08:20:02 51°16.683 2°52.88 16.0059 0.03562 0.203289 -1.000568
2010-04-12 08:21:02 51°16.88 2°52.785 16.0225 0.03562 0.203326 -1.000568
2010-04-12 08:22:02 51°17.076 2°52.687 16.0455 0.03562 0.203415 -1.000568
2010-04-12 08:23:02 51°17.272 2°52.59 16.0735 0.03562 0.203542 -1.000568
2010-04-12 08:24:02 51°17.473 2°52.534 16.0872 0.03562 0.203584 -0.965744
2010-04-12 08:25:02 51°17.678 2°52.521 15.9004 0.03562 0.203711 -1.000568
2010-04-12 08:26:02 51°17.881 2°52.545 15.9131 0.03562 0.203786 -0.965744
2010-04-12 08:27:01 51°18.071 2°52.624 15.9024 0.035516 0.203236 -1.000568
2010-04-12 08:28:01 51°18.203 2°52.859 15.9113 0.035516 0.203294 -1.000568
2010-04-12 08:29:02 51°18.282 2°53.168 15.891 0.035516 0.203332 -1.000568
2010-04-12 08:30:02 51°18.364 2°53.469 15.9001 0.035516 0.203366 -1.000568
2010-04-12 08:31:02 51°18.447 2°53.77 15.9337 0.035516 0.203432 -0.965744
2010-04-12 08:32:01 51°18.529 2°54.067 15.9016 0.035516 0.203452 -0.965744
2010-04-12 08:33:01 51°18.611 2°54.367 15.9159 0.035412 0.202935 -1.000568
2010-04-12 08:34:02 51°18.693 2°54.675 15.9793 0.035412 0.202987 -1.000568
2010-04-12 08:35:02 51°18.777 2°54.977 15.9001 0.035412 0.203066 -0.965744
2010-04-12 08:36:02 51°18.858 2°55.279 15.8445 0.035412 0.203094 -0.965744
2010-04-12 08:37:02 51°18.942 2°55.579 15.8926 0.035412 0.203107 -1.000568
2010-04-12 08:38:02 51°19.026 2°55.882 15.9562 0.035412 0.203155 -1.000568
2010-04-12 08:39:02 51°19.109 2°56.185 15.8487 0.035412 0.203186 -1.035392
2010-04-12 08:40:02 51°19.197 2°56.483 15.8759 0.035412 0.203255 -0.965744
2010-04-12 08:41:02 51°19.298 2°56.77 15.9339 0.035412 0.20328 -0.965744
2010-04-12 08:42:02 51°19.4 2°57.055 15.8979 0.035412 0.203324 -0.965744
2010-04-12 08:43:02 51°19.503 2°57.343 15.8974 0.035308 0.202737 -1.000568
2010-04-12 08:44:01 51°19.605 2°57.627 15.9168 0.035308 0.202761 -1.000568
2010-04-12 08:45:02 51°19.71 2°57.914 15.9178 0.035308 0.202799 -0.965744
2010-04-12 08:46:02 51°19.771 2°58.093 15.9114 0.035308 0.202858 -0.965744
2010-04-12 08:47:02 51°19.78 2°58.16 15.9007 0.035308 0.202944 -1.000568
2010-04-12 08:48:02 51°19.759 2°58.171 15.9099 0.035308 0.20301 -0.965744
2010-04-12 08:49:02 51°19.735 2°58.172 16.0706 0.035308 0.203096 -0.93092
2010-04-12 08:50:01 51°19.711 2°58.166 16.063 0.035308 0.203127 -0.965744
2010-04-12 08:51:02 51°19.686 2°58.156 16.0757 0.035204 0.202546 -0.965744
2010-04-12 08:52:01 51°19.662 2°58.147 16.1077 0.035308 0.20321 -1.000568
2010-04-12 08:53:01 51°19.633 2°58.157 16.0974 0.035204 0.202701 -1.000568
2010-04-12 08:54:01 51°19.634 2°58.249 16.1371 0.035204 0.20267 -0.965744
2010-04-12 08:55:01 51°19.696 2°58.4 16.2243 0.035204 0.202794 -1.000568
2010-04-12 08:56:01 51°19.778 2°58.636 16.2943 0.035204 0.202908 -0.965744
2010-04-12 08:57:01 51°19.878 2°58.934 16.2804 0.035204 0.202974 -1.000568
2010-04-12 08:58:01 51°19.966 2°59.248 16.317 0.035204 0.203005 -1.000568
2010-04-12 08:59:02 51°20.048 2°59.574 16.3347 0.035204 0.203075 -0.965744
2010-04-12 09:00:02 51°20.126 2°59.895 16.3461 0.035204 0.203154 -0.965744
2010-04-12 09:01:01 51°20.204 3°0.209 16.3684 0.0351 0.202568 -0.965744
2010-04-12 09:02:01 51°20.284 3°0.531 16.3735 0.0351 0.202685 -0.965744
2010-04-12 09:03:01 51°20.365 3°0.853 16.3904 0.0351 0.202737 -1.000568
2010-04-12 09:04:01 51°20.448 3°1.173 16.4009 0.0351 0.202758 -1.000568
2010-04-12 09:05:02 51°20.531 3°1.501 16.42 0.0351 0.202845 -1.000568
2010-04-12 09:06:01 51°20.613 3°1.818 16.4271 0.0351 0.202855 -0.965744
2010-04-12 09:07:02 51°20.698 3°2.148 16.4408 0.0351 0.20289 -1.000568
2010-04-12 09:08:01 51°20.781 3°2.467 16.4481 0.0351 0.202953 -0.965744
2010-04-12 09:09:01 51°20.865 3°2.792 16.4611 0.0351 0.202995 -1.000568
2010-04-12 09:10:01 51°20.951 3°3.119 16.4719 0.0351 0.203026 -0.965744
2010-04-12 09:11:01 51°21.035 3°3.447 16.4797 0.034996 0.202452 -1.000568
2010-04-12 09:12:01 51°21.121 3°3.773 16.4915 0.034996 0.202497 -0.965744
2010-04-12 09:13:01 51°21.208 3°4.098 16.5002 0.0351 0.203197 -0.965744
2010-04-12 09:14:02 51°21.294 3°4.428 16.5119 0.034996 0.202625 -0.93092
2010-04-12 09:15:01 51°21.376 3°4.751 16.5214 0.034996 0.20266 -0.965744
2010-04-12 09:16:02 51°21.449 3°5.093 16.5297 0.034996 0.202744 -0.965744
2010-04-12 09:17:01 51°21.518 3°5.427 16.5414 0.034996 0.202765 -0.965744
2010-04-12 09:18:01 51°21.589 3°5.767 16.5516 0.034996 0.202817 -1.000568
2010-04-12 09:19:02 51°21.661 3°6.114 16.5633 0.034996 0.202848 -1.000568
2010-04-12 09:20:01 51°21.731 3°6.448 16.5715 0.034996 0.202921 -0.965744
2010-04-12 09:21:01 51°21.8 3°6.788 16.5807 0.034996 0.202939 -0.965744
2010-04-12 09:22:01 51°21.869 3°7.13 16.5927 0.034996 0.202984 -0.965744
2010-04-12 09:23:02 51°21.939 3°7.478 16.6031 0.034996 0.203023 -0.965744
2010-04-12 09:24:01 51°22.022 3°7.797 16.6138 0.034996 0.203061 -0.965744
2010-04-12 09:25:01 51°22.137 3°8.097 16.6249 0.034996 0.203082 -0.965744
2010-04-12 09:26:01 51°22.252 3°8.391 16.6387 0.034892 0.20253 -0.965744
2010-04-12 09:27:02 51°22.329 3°8.606 16.6544 0.034892 0.202583 -0.965744
2010-04-12 09:28:01 51°22.392 3°8.796 16.6541 0.034892 0.202635 -0.965744
2010-04-12 09:29:01 51°22.458 3°9.026 16.6664 0.034892 0.202677 -0.93092
2010-04-12 09:30:02 51°22.508 3°9.338 16.6804 0.034892 0.20274 -0.965744
2010-04-12 09:31:01 51°22.539 3°9.678 16.6925 0.034892 0.202792 -0.965744
2010-04-12 09:32:01 51°22.574 3°10.038 16.7034 0.034892 0.202824 -0.965744
2010-04-12 09:33:01 51°22.623 3°10.394 16.7143 0.034892 0.202848 -0.965744
2010-04-12 09:34:02 51°22.687 3°10.748 16.7287 0.034892 0.202894 -1.000568
2010-04-12 09:35:01 51°22.768 3°10.907 16.7148 0.034892 0.202912 -0.965744
2010-04-12 09:36:01 51°22.824 3°10.978 16.7173 0.034892 0.202978 -0.965744
2010-04-12 09:37:01 51°22.843 3°10.984 16.748 0.034892 0.203006 -1.000568
2010-04-12 09:38:01 51°22.834 3°10.978 16.7679 0.034892 0.203083 -1.000568
2010-04-12 09:39:01 51°22.82 3°10.978 16.7872 0.034892 0.203097 -0.965744
2010-04-12 09:40:01 51°22.805 3°10.985 16.8047 0.034892 0.203143 -0.965744
2010-04-12 09:41:02 51°22.788 3°10.994 16.8245 0.034788 0.202593 -0.965744
2010-04-12 09:42:02 51°22.77 3°11.005 16.8429 0.034788 0.20267 -0.965744
2010-04-12 09:43:01 51°22.759 3°10.999 16.8617 0.034788 0.202639 -1.000568
2010-04-12 09:44:01 51°22.805 3°10.975 16.882 0.034788 0.202691 -0.965744
2010-04-12 09:45:01 51°22.899 3°11.002 16.8987 0.034788 0.202726 -0.965744
2010-04-12 09:46:01 51°22.961 3°11.021 16.9178 0.034788 0.202751 -0.965744
2010-04-12 09:47:01 51°22.995 3°11.041 16.9342 0.034788 0.202797 -0.965744
2010-04-12 09:48:01 51°23.021 3°11.058 16.9467 0.034788 0.202839 -1.000568
2010-04-12 09:49:01 51°23.049 3°11.074 16.9586 0.034788 0.202902 -0.965744
2010-04-12 09:50:01 51°23.097 3°11.099 16.9753 0.034788 0.202955 -0.965744
2010-04-12 09:51:01 51°23.163 3°11.115 16.9863 0.034788 0.203001 -0.965744
2010-04-12 09:52:01 51°23.246 3°11.123 16.9983 0.034788 0.203068 -0.965744
2010-04-12 09:53:01 51°23.34 3°11.134 17.0215 0.034684 0.202516 -0.965744
2010-04-12 09:54:02 51°23.43 3°11.147 17.0401 0.034684 0.202597 -0.965744
2010-04-12 09:55:01 51°23.498 3°11.164 17.0546 0.034684 0.20266 -1.000568
2010-04-12 09:56:01 51°23.56 3°11.171 17.0746 0.034684 0.202731 -0.965744
2010-04-12 09:57:02 51°23.674 3°11.128 17.083 0.034684 0.202784 -1.000568
2010-04-12 09:58:01 51°23.814 3°11.078 17.1043 0.034684 0.202865 -0.93092
2010-04-12 09:59:02 51°23.971 3°11.027 17.1198 0.034684 0.202957 -0.965744
2010-04-12 10:00:01 51°24.128 3°11.015 17.1382 0.034684 0.203024 -0.965744
2010-04-12 10:01:02 51°24.292 3°11.055 17.1516 0.034684 0.203112 -0.965744
2010-04-12 10:02:01 51°24.444 3°11.064 17.1681 0.03458 0.202556 -0.965744
2010-04-12 10:03:02 51°24.551 3°11.019 17.1859 0.034684 0.20324 -1.000568
2010-04-12 10:04:01 51°24.602 3°11.001 17.2006 0.03458 0.202715 -1.000568
2010-04-12 10:05:01 51°24.632 3°10.983 17.2186 0.03458 0.202803 -0.93092
2010-04-12 10:06:02 51°24.643 3°10.94 17.2282 0.03458 0.202899 -1.000568
2010-04-12 10:07:01 51°24.65 3°10.893 17.2405 0.03458 0.20297 -0.965744
2010-04-12 10:08:02 51°24.658 3°10.843 17.2594 0.03458 0.203027 -1.000568
2010-04-12 10:09:01 51°24.667 3°10.792 17.2709 0.03458 0.203116 -0.965744
2010-04-12 10:10:02 51°24.677 3°10.74 17.2876 0.034476 0.202518 -1.000568
2010-04-12 10:11:01 51°24.684 3°10.69 17.3002 0.03458 0.20318 -0.965744
2010-04-12 10:12:02 51°24.69 3°10.635 17.3118 0.034476 0.2026 -1.000568
2010-04-12 10:13:01 51°24.698 3°10.583 17.3245 0.034476 0.202664 -0.965744
2010-04-12 10:14:01 51°24.703 3°10.531 17.3437 0.034476 0.202717 -0.965744
2010-04-12 10:15:01 51°24.703 3°10.478 17.3535 0.034476 0.202777 -0.965744
2010-04-12 10:16:01 51°24.705 3°10.425 17.3669 0.034476 0.202806 -0.93092
2010-04-12 10:17:02 51°24.706 3°10.369 17.3819 0.034476 0.202856 -0.965744
2010-04-12 10:18:01 51°24.706 3°10.316 17.392 0.034476 0.202913 -1.000568
2010-04-12 10:19:02 51°24.705 3°10.266 17.4064 0.034476 0.202955 -0.965744
2010-04-12 10:20:01 51°24.707 3°10.216 17.4203 0.034476 0.202977 -1.000568
2010-04-12 10:21:01 51°24.709 3°10.162 17.4303 0.034476 0.203062 -0.965744
2010-04-12 10:22:01 51°24.711 3°10.11 17.4468 0.034372 0.202452 -0.965744
2010-04-12 10:23:01 51°24.71 3°10.056 17.4584 0.034476 0.203112 -0.965744
2010-04-12 10:24:01 51°24.71 3°10.003 17.4716 0.034372 0.202531 -0.965744
2010-04-12 10:25:02 51°24.71 3°9.949 17.4828 0.034372 0.20257 -0.93092
2010-04-12 10:26:02 51°24.709 3°9.896 17.4945 0.034372 0.202627 -0.965744
2010-04-12 10:27:01 51°24.708 3°9.844 17.5069 0.034372 0.202662 -0.965744
2010-04-12 10:28:01 51°24.706 3°9.792 17.5187 0.034372 0.202691 -0.965744
2010-04-12 10:29:02 51°24.712 3°9.743 17.5287 0.034372 0.202709 -0.965744
2010-04-12 10:30:02 51°24.768 3°9.753 17.5427 0.034372 0.202773 -0.965744
2010-04-12 10:31:01 51°24.875 3°9.884 17.5514 0.034372 0.202812 -1.000568
2010-04-12 10:32:01 51°24.866 3°10.04 17.5595 0.034372 0.20288 -0.965744
2010-04-12 10:33:01 51°24.789 3°10.103 17.5665 0.034372 0.20293 -0.965744
2010-04-12 10:34:01 51°24.724 3°10.105 17.5734 0.034372 0.20297 -0.965744
2010-04-12 10:35:01 51°24.676 3°10.064 17.5842 0.034268 0.202405 -0.965744
2010-04-12 10:36:01 51°24.652 3°10.011 17.5925 0.034268 0.202458 -0.965744
2010-04-12 10:37:02 51°24.642 3°9.914 17.6017 0.034268 0.202494 -0.965744
2010-04-12 10:38:01 51°24.679 3°9.777 17.6116 0.034268 0.202558 -0.965744
2010-04-12 10:39:02 51°24.714 3°9.738 17.6205 0.034268 0.202576 -0.965744
2010-04-12 10:40:01 51°24.753 3°9.713 17.6301 0.034268 0.202608 -0.965744
2010-04-12 10:41:01 51°24.812 3°9.699 17.6395 0.034268 0.202651 -1.000568
2010-04-12 10:42:01 51°24.878 3°9.722 17.6471 0.034268 0.202701 -0.93092
2010-04-12 10:43:01 51°24.928 3°9.75 17.6561 0.034268 0.202759 -1.000568
2010-04-12 10:44:01 51°24.968 3°9.82 17.661 0.034268 0.202834 -1.000568
2010-04-12 10:45:01 51°24.996 3°9.92 17.6652 0.034268 0.202902 -1.000568
2010-04-12 10:46:01 51°25.017 3°10.024 17.6669 0.034268 0.202981 -1.000568
2010-04-12 10:47:01 51°25.032 3°10.129 17.6664 0.034268 0.203025 -0.965744
2010-04-12 10:48:01 51°25.043 3°10.226 17.6701 0.034164 0.202447 -1.000568
2010-04-12 10:49:01 51°25.059 3°10.319 17.6739 0.034164 0.202508 -0.965744
2010-04-12 10:50:01 51°25.085 3°10.409 17.6857 0.034164 0.202551 -0.965744
2010-04-12 10:51:01 51°25.108 3°10.497 17.6905 0.034164 0.202583 -1.000568
2010-04-12 10:52:01 51°25.13 3°10.588 17.6926 0.034164 0.202641 -1.000568
2010-04-12 10:53:02 51°25.153 3°10.684 17.6961 0.034164 0.20268 -1.000568
2010-04-12 10:54:01 51°25.173 3°10.781 17.6964 0.034164 0.20272 -0.965744
2010-04-12 10:55:02 51°25.191 3°10.884 17.6968 0.034164 0.202766 -1.000568
2010-04-12 10:56:01 51°25.203 3°10.978 17.6971 0.034164 0.202799 -0.965744
2010-04-12 10:57:02 51°25.218 3°11.076 17.6986 0.034164 0.202835 -0.965744
2010-04-12 10:58:01 51°25.234 3°11.168 17.7044 0.034164 0.202857 -0.965744
2010-04-12 10:59:01 51°25.253 3°11.262 17.7032 0.034164 0.202903 -0.965744
2010-04-12 11:00:01 51°25.268 3°11.358 17.7032 0.034164 0.202925 -0.965744
2010-04-12 11:01:02 51°25.284 3°11.454 17.7007 0.03406 0.202338 -1.000568
2010-04-12 11:02:02 51°25.305 3°11.542 17.7096 0.03406 0.202371 -1.000568
2010-04-12 11:03:01 51°25.332 3°11.615 17.7164 0.03406 0.202407 -0.965744
2010-04-12 11:04:02 51°25.372 3°11.69 17.752 0.03406 0.202443 -0.965744
2010-04-12 11:05:01 51°25.409 3°11.784 17.7411 0.034164 0.203116 -1.000568
2010-04-12 11:06:02 51°25.425 3°11.902 17.708 0.03406 0.202537 -0.93092
2010-04-12 11:07:02 51°25.429 3°12.018 17.6964 0.03406 0.202573 -1.000568
2010-04-12 11:08:02 51°25.432 3°12.12 17.6974 0.03406 0.202587 -1.000568
2010-04-12 11:09:01 51°25.439 3°12.215 17.7022 0.03406 0.202627 -1.000568
2010-04-12 11:10:01 51°25.446 3°12.305 17.6859 0.03406 0.20267 -1.000568
2010-04-12 11:11:01 51°25.454 3°12.397 17.7014 0.03406 0.20271 -0.965744
2010-04-12 11:12:01 51°25.464 3°12.488 17.7161 0.03406 0.202764 -0.965744
2010-04-12 11:13:02 51°25.473 3°12.579 17.7139 0.03406 0.202789 -1.000568
2010-04-12 11:14:02 51°25.487 3°12.671 17.7259 0.03406 0.202833 -1.000568
2010-04-12 11:15:02 51°25.497 3°12.762 17.7153 0.03406 0.20288 -0.965744
2010-04-12 11:16:01 51°25.509 3°12.85 17.7395 0.03406 0.202912 -0.965744
2010-04-12 11:17:02 51°25.521 3°12.944 17.7497 0.033956 0.20232 -1.000568
2010-04-12 11:18:01 51°25.521 3°13.042 17.7336 0.033956 0.202356 -1.000568
2010-04-12 11:19:01 51°25.512 3°13.149 17.7177 0.033956 0.202396 -1.000568
2010-04-12 11:20:01 51°25.498 3°13.259 17.7378 0.033956 0.202411 -1.000568
2010-04-12 11:21:01 51°25.485 3°13.367 17.7462 0.033956 0.202454 -1.000568
2010-04-12 11:22:02 51°25.465 3°13.477 17.7678 0.033956 0.202508 -0.965744
2010-04-12 11:23:01 51°25.43 3°13.574 17.8063 0.033956 0.202548 -0.965744
2010-04-12 11:24:02 51°25.371 3°13.64 17.7916 0.033956 0.202606 -1.000568
2010-04-12 11:25:01 51°25.306 3°13.675 17.845 0.033956 0.202639 -1.000568
2010-04-12 11:26:01 51°25.252 3°13.675 17.8613 0.033956 0.202668 -1.000568
2010-04-12 11:27:01 51°25.214 3°13.646 17.8638 0.033956 0.202711 -1.035392
2010-04-12 11:28:01 51°25.193 3°13.605 17.8499 0.033956 0.202755 -1.000568
2010-04-12 11:29:01 51°25.182 3°13.553 17.8793 0.033956 0.20278 -0.965744
2010-04-12 11:30:02 51°25.185 3°13.498 17.8656 0.033852 0.202205 -0.965744
2010-04-12 11:31:02 51°25.193 3°13.464 17.8707 0.033852 0.202248 -1.000568
2010-04-12 11:32:01 51°25.206 3°13.422 17.8851 0.033956 0.202929 -1.000568
2010-04-12 11:33:01 51°25.244 3°13.313 17.8863 0.033852 0.202383 -0.965744
2010-04-12 11:34:01 51°25.265 3°13.248 17.8858 0.033852 0.202379 -1.000568
2010-04-12 11:35:01 51°25.269 3°13.224 17.8894 0.033852 0.202433 -0.965744
2010-04-12 11:36:01 51°25.267 3°13.219 17.9111 0.033852 0.202462 -1.000568
2010-04-12 11:37:02 51°25.259 3°13.225 17.9011 0.033852 0.202535 -1.000568
2010-04-12 11:38:01 51°25.247 3°13.237 17.9099 0.033852 0.202575 -0.965744
2010-04-12 11:39:01 51°25.233 3°13.253 17.9066 0.033852 0.202644 -1.000568
2010-04-12 11:40:02 51°25.221 3°13.256 17.9198 0.033852 0.20267 -1.000568
2010-04-12 11:41:01 51°25.215 3°13.143 17.9327 0.033852 0.202692 -0.965744
2010-04-12 11:42:01 51°25.19 3°12.974 17.939 0.033852 0.202765 -1.000568
2010-04-12 11:43:01 51°25.114 3°12.82 17.9304 0.033852 0.202783 -1.000568
2010-04-12 11:44:02 51°25.025 3°12.672 17.9554 0.033852 0.202848 -1.000568
2010-04-12 11:45:01 51°24.937 3°12.527 17.9375 0.033852 0.202878 -1.000568
2010-04-12 11:46:01 51°24.846 3°12.382 17.9551 0.033748 0.202293 -0.965744
2010-04-12 11:47:01 51°24.744 3°12.233 17.9481 0.033748 0.202351 -1.000568
2010-04-12 11:48:01 51°24.586 3°12.139 17.9483 0.033748 0.202366 -0.965744
2010-04-12 11:49:01 51°24.416 3°12.072 17.951 0.033748 0.202398 -0.965744
2010-04-12 11:50:01 51°24.247 3°12.004 17.9424 0.033748 0.202417 -0.965744
2010-04-12 11:51:02 51°24.077 3°11.926 17.9585 0.033748 0.202457 -1.000568
2010-04-12 11:52:01 51°23.922 3°11.821 17.9768 0.033748 0.202486 -1.000568
2010-04-12 11:53:02 51°23.79 3°11.661 17.9688 0.033748 0.202526 -0.965744
2010-04-12 11:54:01 51°23.684 3°11.474 17.9575 0.033748 0.202537 -0.965744
2010-04-12 11:55:01 51°23.574 3°11.285 17.9863 0.033748 0.202574 -1.000568
2010-04-12 11:56:01 51°23.465 3°11.093 17.9639 0.033748 0.20261 -0.965744
2010-04-12 11:57:01 51°23.356 3°10.899 17.9572 0.033748 0.202632 -1.000568
2010-04-12 11:58:01 51°23.244 3°10.713 18.0543 0.033748 0.202698 -0.965744
2010-04-12 11:59:02 51°23.133 3°10.519 18.0241 0.033748 0.202713 -1.000568
2010-04-12 12:00:02 51°23.02 3°10.331 18.0326 0.033748 0.202738 -0.965744
2010-04-12 12:01:02 51°22.914 3°10.131 18.0357 0.033644 0.202094 -0.965744
2010-04-12 12:02:02 51°22.832 3°9.903 18.0836 0.033644 0.202159 -0.965744
2010-04-12 12:03:02 51°22.759 3°9.669 18.0562 0.033644 0.202181 -1.000568
2010-04-12 12:04:02 51°22.686 3°9.436 18.0942 0.033644 0.202214 -0.965744
2010-04-12 12:05:01 51°22.615 3°9.209 18.0944 0.033644 0.202229 -1.000568
2010-04-12 12:06:01 51°22.542 3°8.98 18.1848 0.033644 0.202258 -0.965744
2010-04-12 12:07:01 51°22.47 3°8.75 18.1139 0.033644 0.202309 -1.000568
2010-04-12 12:08:01 51°22.398 3°8.518 18.1106 0.033644 0.202298 -1.000568
2010-04-12 12:09:01 51°22.326 3°8.288 18.1493 0.033644 0.202331 -0.965744
2010-04-12 12:10:01 51°22.254 3°8.061 18.1396 0.033644 0.202331 -1.000568
2010-04-12 12:11:01 51°22.185 3°7.834 18.1101 0.033644 0.202401 -1.000568
2010-04-12 12:12:01 51°22.111 3°7.6 18.1736 0.033644 0.202441 -0.965744
2010-04-12 12:13:01 51°22.053 3°7.299 18.2169 0.033644 0.202463 -0.965744
2010-04-12 12:14:01 51°22.005 3°7.006 18.1699 0.03354 0.201832 -0.965744
2010-04-12 12:15:01 51°21.958 3°6.763 18.1263 0.033644 0.20247 -1.000568
2010-04-12 12:16:01 51°21.897 3°6.523 18.1934 0.03354 0.201883 -0.965744
2010-04-12 12:17:01 51°21.834 3°6.28 18.1896 0.033644 0.202573 -1.000568
2010-04-12 12:18:01 51°21.774 3°6.033 18.1583 0.033644 0.202565 -0.965744
2010-04-12 12:19:01 51°21.71 3°5.786 18.1722 0.03354 0.201963 -1.000568
2010-04-12 12:20:01 51°21.646 3°5.542 18.2079 0.03354 0.202003 -1.000568
2010-04-12 12:21:01 51°21.582 3°5.296 18.1634 0.03354 0.202007 -0.965744
2010-04-12 12:22:01 51°21.509 3°5.054 18.2044 0.03354 0.20208 -0.965744
2010-04-12 12:23:01 51°21.435 3°4.816 18.3098 0.033644 0.202723 -0.965744
2010-04-12 12:24:01 51°21.367 3°4.573 18.214 0.03354 0.202106 -0.965744
2010-04-12 12:25:01 51°21.292 3°4.339 18.2101 0.03354 0.20215 -1.000568
2010-04-12 12:26:01 51°21.178 3°4.149 18.2264 0.03354 0.202154 -1.000568
2010-04-12 12:27:01 51°21.086 3°3.921 18.3242 0.03354 0.202183 -1.000568
2010-04-12 12:28:01 51°21.008 3°3.682 18.2678 0.03354 0.202286 -0.965744
2010-04-12 12:29:01 51°20.946 3°3.429 18.2833 0.03354 0.202267 -1.000568
2010-04-12 12:30:01 51°20.887 3°3.179 18.2953 0.03354 0.202293 -0.965744
2010-04-12 12:31:01 51°20.768 3°2.981 18.2537 0.03354 0.20226 -0.965744
2010-04-12 12:32:01 51°20.664 3°2.762 18.2511 0.03354 0.202282 -1.000568
2010-04-12 12:33:01 51°20.647 3°2.491 18.3098 0.03354 0.202377 -0.965744
2010-04-12 12:34:01 51°20.65 3°2.209 18.2724 0.03354 0.202381 -1.000568
2010-04-12 12:35:01 51°20.651 3°1.929 18.3305 0.03354 0.202407 -0.965744
2010-04-12 12:36:01 51°20.648 3°1.654 18.3046 0.03354 0.202436 -1.000568
2010-04-12 12:37:01 51°20.643 3°1.384 18.3403 0.03354 0.202514 -1.000568
2010-04-12 12:38:01 51°20.613 3°1.121 18.3283 0.03354 0.202514 -0.93092
2010-04-12 12:39:01 51°20.558 3°0.866 18.3689 0.03354 0.202536 -1.000568
2010-04-12 12:40:01 51°20.506 3°0.61 18.342 0.03354 0.202558 -0.965744
2010-04-12 12:41:01 51°20.456 3°0.351 18.3709 0.033436 0.201932 -0.965744
2010-04-12 12:42:01 51°20.4 3°0.092 18.347 0.03354 0.202591 -0.965744
2010-04-12 12:43:01 51°20.33 2°59.844 18.3498 0.03354 0.20262 -0.93092
2010-04-12 12:44:01 51°20.26 2°59.596 18.3463 0.03354 0.20265 -0.965744
2010-04-12 12:45:01 51°20.19 2°59.348 18.316 0.03354 0.202731 -0.965744
2010-04-12 12:46:01 51°20.123 2°59.096 18.3796 0.03354 0.202716 -0.93092
2010-04-12 12:47:01 51°20.054 2°58.845 18.4258 0.033436 0.202108 -0.965744
2010-04-12 12:48:01 51°19.989 2°58.592 18.3866 0.033436 0.202115 -0.965744
2010-04-12 12:49:01 51°19.922 2°58.34 18.3851 0.033436 0.202134 -0.965744
2010-04-12 12:50:01 51°19.854 2°58.086 18.3997 0.033436 0.202134 -0.965744
2010-04-12 12:51:01 51°19.785 2°57.829 18.4413 0.033436 0.202134 -0.965744
2010-04-12 12:52:01 51°19.717 2°57.575 18.4503 0.033436 0.202196 -0.965744
2010-04-12 12:53:01 51°19.648 2°57.324 18.4068 0.033436 0.202241 -0.965744
2010-04-12 12:54:01 51°19.579 2°57.072 18.4369 0.033436 0.20227 -0.965744
2010-04-12 12:55:01 51°19.512 2°56.818 18.4592 0.033436 0.202259 -0.965744
2010-04-12 12:56:01 51°19.445 2°56.56 18.4055 0.033436 0.202281 -1.000568
2010-04-12 12:57:01 51°19.375 2°56.305 18.4053 0.033436 0.202333 -1.000568
2010-04-12 12:58:01 51°19.307 2°56.049 18.392 0.033436 0.202322 -0.965744
2010-04-12 12:59:01 51°19.237 2°55.796 18.452 0.033436 0.202325 -0.965744
2010-04-12 13:00:01 51°19.166 2°55.537 18.461 0.033436 0.202344 -1.000568
2010-04-12 13:01:01 51°19.096 2°55.279 18.4718 0.033436 0.202347 -0.965744
2010-04-12 13:02:01 51°19.027 2°55.019 18.5089 0.033436 0.20241 -1.000568
2010-04-12 13:03:01 51°18.958 2°54.762 18.4534 0.033436 0.202436 -0.965744
2010-04-12 13:04:01 51°18.886 2°54.506 18.4317 0.033436 0.202432 -0.93092
2010-04-12 13:05:01 51°18.816 2°54.248 18.4839 0.033436 0.202466 -0.965744
2010-04-12 13:06:01 51°18.745 2°53.991 18.5292 0.033332 0.201805 -0.93092
2010-04-12 13:07:01 51°18.676 2°53.732 18.4649 0.033436 0.202477 -0.965744
2010-04-12 13:08:01 51°18.606 2°53.474 18.6123 0.033436 0.202514 -1.000568
2010-04-12 13:09:01 51°18.534 2°53.217 18.5431 0.033436 0.202558 -0.965744
2010-04-12 13:10:01 51°18.452 2°52.969 18.5426 0.033436 0.20254 -0.965744
2010-04-12 13:11:01 51°18.362 2°52.729 18.4357 0.033436 0.202554 -0.965744
2010-04-12 13:12:01 51°18.266 2°52.496 18.5135 0.033332 0.201941 -0.965744
2010-04-12 13:13:01 51°18.122 2°52.344 18.4972 0.033436 0.202558 -0.965744
2010-04-12 13:15:26 51°17.705 2°52.182 18.5105 0.033332 0.20197 -1.000568
2010-04-12 13:16:26 51°17.532 2°52.123 18.4996 0.033332 0.201981 -1.000568
2010-04-12 13:17:26 51°17.356 2°52.113 18.5266 0.033332 0.202004 -0.93092
2010-04-12 13:18:26 51°17.182 2°52.157 18.4997 0.033436 0.202654 -1.000568
2010-04-12 13:19:26 51°17.019 2°52.278 18.5056 0.033332 0.202033 -0.965744
2010-04-12 13:20:26 51°16.858 2°52.409 18.5169 0.033332 0.202033 -1.000568
2010-04-12 13:21:26 51°16.694 2°52.535 18.4602 0.033332 0.202077 -1.000568
2010-04-12 13:22:26 51°16.53 2°52.664 18.4794 0.033332 0.202055 -0.965744
2010-04-12 13:23:26 51°16.378 2°52.826 18.4897 0.033332 0.2021 -0.965744
2010-04-12 13:24:26 51°16.224 2°52.99 18.4676 0.033332 0.2021 -0.965744
2010-04-12 13:25:26 51°16.075 2°53.163 18.4886 0.033332 0.202155 -1.000568
2010-04-12 13:26:26 51°15.928 2°53.343 18.5145 0.033332 0.202155 -0.965744
2010-04-12 13:27:26 51°15.774 2°53.504 18.4525 0.033332 0.202192 -1.000568
2010-04-12 13:28:26 51°15.622 2°53.67 18.4719 0.033332 0.202222 -0.965744
2010-04-12 13:29:26 51°15.471 2°53.839 18.5289 0.033332 0.202251 -1.000568
2010-04-12 13:30:26 51°15.323 2°54.01 18.4492 0.033332 0.202336 -0.965744
2010-04-12 13:31:26 51°15.184 2°54.194 18.4701 0.033332 0.202266 -0.965744
2010-04-12 13:32:26 51°15.074 2°54.346 18.4744 0.033332 0.20231 -0.965744
2010-04-12 13:33:26 51°14.973 2°54.478 12.188 0.033332 0.202325 -0.965744
2010-04-12 13:34:26 51°14.813 2°54.612 13.6524 0.033332 0.202392 -0.965744
2010-04-12 13:35:26 51°14.641 2°54.829 13.7267 0.033332 0.202422 -0.965744
2010-04-12 13:36:26 51°14.468 2°55.057 13.983 0.033332 0.202436 -0.93092
2010-04-12 13:37:26 51°14.308 2°55.232 14.4256 0.033332 0.202474 -1.10504
2010-04-12 13:38:30 51°14.205 2°55.353 14.6901 0.033332 0.202466 -0.965744
2010-04-12 13:39:30 51°14.114 2°55.424 14.6002 0.033332 0.202518 -0.965744
2010-04-12 13:40:30 51°14.036 2°55.502 14.7238 0.033332 0.202574 -0.93092
2010-04-12 13:41:30 51°14.01 2°55.559 14.7785 0.033332 0.202577 -0.93092
2010-04-12 13:42:30 51°14.006 2°55.56 14.9041 0.033332 0.202626 -0.965744
2010-04-12 13:43:30 51°14 2°55.559 14.9535 0.033332 0.202652 -0.965744
2010-04-12 13:44:30 51°13.956 2°55.581 15.0019 0.033332 0.202685 -0.965744
2010-04-12 13:45:30 51°13.86 2°55.622 16.7611 0.033332 0.202715 -0.965744
2010-04-12 13:46:30 51°13.767 2°55.692 16.5128 0.033332 0.202749 -0.965744
2010-04-12 13:47:30 51°13.715 2°55.781 16.4668 0.033332 0.202756 -0.965744
2010-04-12 13:48:29 51°13.679 2°55.877 16.5294 0.033332 0.202782 -0.965744
2010-04-12 13:49:27 51°13.665 2°55.948 16.5816 0.033228 0.202151 -1.000568
2010-04-12 13:50:30 51°13.661 2°55.96 16.5419 0.033228 0.202188 -0.965744